Погода Улан-Удэ

Погода Улан-Удэ : погода сейчас, прогноз погоды и архив. Всё, что Вы хотите узнать о погоде Улан-Удэ!

Поиск расширенной информации на нашем сайте:

Другие новости

Новости СМИ2

Главная страница сайта

Новости сайта

03.07.2017

Напоминаем, что на нашем специализированном сайте Метеоцентр.Азия вы можете получить высокодетализированные автоматические прогнозы погоды по пунктам России, СНГ и мира в авиационном формате (включающие направление и скорость ветра, видимость, явления погоды, количество и форму облачности, нижнюю и верхнюю границу облачности).

Рекомендуем: Сравнить цены на мойку.

Погода Улан-Удэ - сегодня

Время (UTC), дата Ветер
(°,м/с) 
Видим.   Явления Облачность Т
(°С)
Тd
(°С)
f(%) Тe
(°С)
Pmin
(гПа)
dP
(гПа)
Po
(мм)
O2
(г/м3)
Тmin Tmax R s Состояние
почвы
06 16.08.17 350 (С) 20000 м  {ливн. осадки}  10/10 1000 м кучево-дожд. 
[Cb cap]
+20.2 +13 63 +27  1013  -0.8  716  266           
09 16.08.17 340 (С) 20000 м    10/10 1000 м кучево-дожд. 
[Cb cap]
+18.9 +12.6 67 +25  1012.3  -0.9  715  267           
12 16.08.17 330 (СЗ) 20000 м    8/4 1000 м кучево-дожд., средняя 
[Cb cap|Ac trans]
+17.6 +12.9 74 +24  1012.4  -0.2  715  268    +21.1  0.0     
15 16.08.17 290 (З) 20000 м    4/0 средняя 
[Ac trans]
+16 +12.3 79 +22  1012.8  -0.2  715  270           
18 16.08.17 170 (Ю) 20000 м    ясно 
+13.9 +12.2 89 +20  1012.3  -0.9  715  272           
21 16.08.17 230 (ЮЗ) 20000 м    3/0 верхняя 
[Ci fib]
+12.2 +11.5 95 +17  1012.4  -0.2  714  273           
00 17.08.17 160 (Ю) 4000 м  дымка  10/10 1000 м 
[Sc]
+14.2 +12.1 87 +20  1011.4  -0.5  714  271  +12        сухая 
03 17.08.17 190 (Ю) 20000 м    8/1 1000 м верхняя 
[Sc|Ci fib]
+22.2 +13.9 59 +30  1008.9  -0.8  713  263           
06 17.08.17 250 (З) 20000 м    4/4 1000 м кучево-дожд. 
[Cb cap]
+28.4 +14.6 43 +38  1005.8  -1.8  712  257           
09 17.08.17 250 (З) 20000 м    3/3 1000 м 
[Cu hum]
+30 +13.6 37 +38  1004.4  -1  711  256           
12 17.08.17 350 (С) 20000 м    3/3 1000 м верхняя 
[Sc diur, vesp|Ci fib]
+25.9 +12.4 43 +32  1006.4  1.1  712  260    +30       
15 17.08.17 330 (СЗ) 20000 м    3/3 1000 м кучево-дожд. 
[Cb cap]
+22.4 +14.2 60 +31  1008.7  1.6  713  263           
18 17.08.17 340 (С) 20000 м    6/6 1000 м кучево-дожд. 
[Cb cap]
+20.3 +12.1 59 +25  1010.8  1.5  715  266           
21 17.08.17 340 (С) 20000 м    9/6 1000 м кучево-дожд., средняя, верхняя 
[Cb cap|Ac trans|Ci sp]
+18.9 +8.9 52 +21  1011.7  0.5  715  268           
00 18.08.17 300 (СЗ) 20000 м  в посл. час ливневой дождь  10/9 600 м кучево-дожд., средняя 
[Cb cap|Ac und]
+18 +10.1 60 +21  1014  1.9  716  269  +17.5    0.0    влажная 
03 18.08.17 340 (С) 20000 м    10/9 600 м кучево-дожд., средняя 
[Cb cap|Ac und]
+18.5 +10.6 60 +22  1013.8  0.1  716  268           
06 18.08.17 350 (С) 5{10}  20000 м    10/3 1000 м кучево-дожд., средняя, верхняя 
[Cb cap|Ac cast|Ci sp]
+23.5 +11 45 +27  1011.9  -0.8  716  263           
09 18.08.17 330 (СЗ) 20000 м    10/1 1000 м верхняя 
[Cu hum|Ci]
+24.4 +9.3 38 +26  1011  -0.7  715  263           
12 18.08.17 360 (С) 20000 м    10/5 1000 м средняя, верхняя 
[Sc|Ac trans|Ci fib]
+21.3 +9.5 47 +23  1011.5  -0.2  715  266    +24.7       
15 18.08.17 300 (СЗ) 20000 м    10/6 1000 м средняя, верхняя 
[Sc|Ac trans|Ci fib]
+19 +9.9 56 +22  1013.1  1.1  716  268           
18 18.08.17 340 (С) 20000 м    10/5 1000 м средняя 
[Sc|As trans]
+18.1 +9.9 59 +21  1012  -1.2  715  268           
21 18.08.17 360 (С) 20000 м    10/5 1000 м средняя 
[Sc|As op]
+16.5 +10.6 68 +21  1011.6  -0.7  715  269           
00 19.08.17 270 (З) 20000 м  слаб. дождь  10/8 1000 м средняя 
[Sc|As op]
+15.2 +11.1 76 +21  1012.1  0.2  715  271  +15.2        влажная 
06 19.08.17 100 (В) 20000 м  {дождь}  10/5 1000 м кучево-дожд., средняя, верхняя 
[Cb cap|Ac trans|Ci sp]
+20 +10.5 54 +23  1008.5  -1.5  713  266           
09 19.08.17 090 (В) 20000 м    10/4 1000 м кучево-дожд., средняя, верхняя 
[Cb cap|Ac trans|Ci sp]
+20.3 +9.2 49 +21  1007.3  -1  712  265           
Время (UTC), дата Ветер
(°,м/с) 
Видим.   Явления Облачность Т
(°С)
Тd
(°С)
f(%) Тe
(°С)
Pmin
(гПа)
dP
(гПа)
Po
(мм)
O2
(г/м3)
Тmin Tmax R s Состояние
почвы

Для получения пояснительной информации подведите курсор к названию столбца.

ПОГОДА Улан-Удэ - архив

Всё, что Вы хотите узнать о погоде Улан-Удэ - удобно и подробно!

Выберите нужную дату (начиная с 1 января 2015* года) и нажмите кнопку "Найти".
Будут отображены архивные сводки погоды по пункту Улан-Удэ, начиная с указанной даты.


Отображать данные в формате CSV (для использования в таблицах Excel)


Внимание! Наш архив погоды предназначен исключительно для личного некоммерческого использования в познавательных целях. Если Вам необходимы официальные справки о состоянии погоды (для производственных, юридических, коммерческих и т.п. целей), обращайтесь в органы Росгидромета.

*Примечание: данная дата относится к архиву по метеостанциям СССР (Россия, СНГ, Балтия).
Архив по метеостанциям Зарубежной Европы и Азии (кроме Китая) хранится 10 дней, по другим регионам земного шара (Китай, Африка, Америка, Австралия, Океания) - 1 день.

Улан-Удэ - район местоположения метеостанции


Название, широта, долгота, высота метеостанции:
Улан-Удэ (город) 51.8°ш. 107.5°д. 530 м над ур. моря [Российская Федерация]

Дополнительная информация

В oтличие oт бoльшинства пoгoдных сайтoв мы публикуем пoдрoбную метеoинфoрмацию в детальнoм прoфессиoнальнoм фoрмате.

Характеристики температуры и влажнoсти вoздуха измеряются на высoте 2 м в тени вдали oт зданий и деревьев.
Скoрoсть ветра измеряется на высoте 10 м (на урoвне рoста челoвека скoрoсть ветра ниже в 1.5-2 раза). Если метеoстанция нахoдится в гoрoде или в лесу, тo скoрoсть ветра занижена на 2-4 м/с пo сравнению с oткрытым местoм. Скoрoсть ветра над акватoриями крупных рек и oзёр, а также на вершинах хoлмoв на 2-5 м/с выше, чем в oбычных услoвиях.
Атмoсфернoе давление в разных тoчках местнoсти мoжет значительнo oтличаться oт давления на метеoстанции, в зависимoсти oт услoвий рельефа (при пoдъёме на 10 м давление пoнижается примернo на 1 мм рт.ст.).